• en France
  • Liste des pays
  • À 7 jours
  • Température de l'eau
  • Carte satellitaire
  • Carte météo
  • Widgets météo
  • user-avatar
    Se connecter

    Météo par heure à Zeroniczki

    Ce jour, 22 Octobre, Lundi

    Heure Température Précipitation Vent Pression Humidité
    00:00 +7°C° 0 mm 1 m/s 760 mmHg 79%
    01:00 +7°C° 0 mm 1 m/s 760 mmHg 80%
    02:00 +5°C° 0 mm 2 m/s 760 mmHg 81%
    03:00 +5°C° 0 mm 2 m/s 760 mmHg 83%
    04:00 +5°C° 0 mm 2 m/s 760 mmHg 84%
    05:00 +5°C° 0 mm 2 m/s 760 mmHg 84%
    06:00 +5°C° 0 mm 2 m/s 759 mmHg 85%
    07:00 +5°C° 0 mm 2 m/s 759 mmHg 85%
    08:00 +5°C° 0 mm 3 m/s 759 mmHg 78%
    09:00 +8°C° 0 mm 3 m/s 759 mmHg 71%
    10:00 +10°C° 0 mm 3 m/s 759 mmHg 64%
    11:00 +11°C° 0 mm 4 m/s 758 mmHg 61%
    12:00 +12°C° 0 mm 4 m/s 758 mmHg 57%
    13:00 +13°C° 0 mm 4 m/s 757 mmHg 54%
    14:00 +13°C° 0 mm 4 m/s 757 mmHg 57%
    15:00 +12°C° 0 mm 4 m/s 757 mmHg 61%
    16:00 +12°C° 0 mm 4 m/s 757 mmHg 64%
    17:00 +11°C° 0.3 mm 4 m/s 757 mmHg 70%
    18:00 +10°C° 0.3 mm 5 m/s 757 mmHg 76%
    19:00 +9°C° 0.3 mm 5 m/s 757 mmHg 82%
    20:00 +8°C° 0 mm 4 m/s 758 mmHg 81%
    21:00 +8°C° 0 mm 4 m/s 758 mmHg 80%
    22:00 +7°C° 0 mm 4 m/s 758 mmHg 80%
    23:00 +6°C° 0 mm 4 m/s 758 mmHg 82%

    Demain, 23 Octobre, Mardi

    Heure Température Précipitation Vent Pression Humidité
    00:00 +5°C° 0 mm 4 m/s 758 mmHg 84%
    01:00 +5°C° 0 mm 4 m/s 758 mmHg 87%
    02:00 +5°C° 0 mm 4 m/s 757 mmHg 86%
    03:00 +4°C° 0 mm 4 m/s 757 mmHg 85%
    04:00 +4°C° 0 mm 4 m/s 756 mmHg 84%
    05:00 +5°C° 0 mm 5 m/s 756 mmHg 82%
    06:00 +5°C° 0 mm 5 m/s 755 mmHg 79%
    07:00 +4°C° 0 mm 6 m/s 755 mmHg 77%
    08:00 +4°C° 0.5 mm 7 m/s 754 mmHg 76%
    09:00 +5°C° 0.5 mm 8 m/s 753 mmHg 75%
    10:00 +5°C° 0.5 mm 9 m/s 751 mmHg 74%
    11:00 +5°C° 1 mm 9 m/s 750 mmHg 76%
    12:00 +5°C° 1 mm 10 m/s 749 mmHg 77%
    13:00 +4°C° 1 mm 11 m/s 748 mmHg 78%
    14:00 +6°C° 0.6 mm 11 m/s 746 mmHg 78%
    15:00 +6°C° 0.6 mm 11 m/s 745 mmHg 79%
    16:00 +7°C° 0.6 mm 11 m/s 744 mmHg 79%
    17:00 +7°C° 1 mm 11 m/s 743 mmHg 81%
    18:00 +8°C° 1 mm 11 m/s 743 mmHg 83%
    19:00 +8°C° 1 mm 11 m/s 742 mmHg 85%
    20:00 +9°C° 1.5 mm 11 m/s 741 mmHg 85%
    21:00 +9°C° 1.5 mm 11 m/s 741 mmHg 85%
    22:00 +9°C° 1.5 mm 10 m/s 740 mmHg 85%
    23:00 +9°C° 1.3 mm 10 m/s 740 mmHg 83%

    Après-demain, 24 Octobre, Mercredi

    Heure Température Précipitation Vent Pression Humidité
    00:00 +9°C° 1.3 mm 10 m/s 739 mmHg 82%
    01:00 +8°C° 1.3 mm 10 m/s 738 mmHg 81%
    02:00 +8°C° 0.5 mm 10 m/s 739 mmHg 76%
    03:00 +7°C° 0.5 mm 11 m/s 739 mmHg 72%
    04:00 +5°C° 0.5 mm 12 m/s 739 mmHg 67%
    05:00 +4°C° 0.1 mm 11 m/s 740 mmHg 64%
    06:00 +5°C° 0.1 mm 10 m/s 741 mmHg 61%
    07:00 +3°C° 0.1 mm 9 m/s 742 mmHg 58%
    08:00 +5°C° 0 mm 10 m/s 743 mmHg 54%
    09:00 +4°C° 0 mm 11 m/s 743 mmHg 50%
    10:00 +5°C° 0 mm 12 m/s 744 mmHg 45%
    11:00 +6°C° 0 mm 11 m/s 745 mmHg 44%
    12:00 +6°C° 0 mm 11 m/s 745 mmHg 44%
    13:00 +7°C° 0 mm 11 m/s 746 mmHg 43%
    14:00 +6°C° 0 mm 10 m/s 746 mmHg 44%
    15:00 +6°C° 0 mm 9 m/s 747 mmHg 45%
    16:00 +6°C° 0 mm 8 m/s 747 mmHg 45%
    17:00 +5°C° 0 mm 7 m/s 748 mmHg 48%
    18:00 +4°C° 0 mm 7 m/s 748 mmHg 50%
    19:00 +4°C° 0 mm 7 m/s 749 mmHg 52%
    20:00 +3°C° 0 mm 6 m/s 749 mmHg 56%
    21:00 +3°C° 0 mm 6 m/s 749 mmHg 59%
    22:00 +3°C° 0 mm 5 m/s 750 mmHg 63%
    23:00 +3°C° 0 mm 5 m/s 749 mmHg 67%

    25 Octobre, Jeudi

    Heure Température Précipitation Vent Pression Humidité
    00:00 +3°C° 0 mm 5 m/s 749 mmHg 70%
    01:00 +3°C° 0 mm 4 m/s 749 mmHg 74%
    02:00 +3°C° 0 mm 5 m/s 748 mmHg 74%
    03:00 +3°C° 0 mm 5 m/s 748 mmHg 74%
    04:00 +5°C° 0 mm 5 m/s 747 mmHg 75%
    05:00 +5°C° 0.7 mm 6 m/s 746 mmHg 80%
    06:00 +6°C° 0.7 mm 7 m/s 745 mmHg 85%
    07:00 +6°C° 0.7 mm 8 m/s 745 mmHg 90%
    08:00 +7°C° 0.2 mm 8 m/s 744 mmHg 87%
    09:00 +8°C° 0.2 mm 9 m/s 744 mmHg 83%
    10:00 +8°C° 0.2 mm 10 m/s 743 mmHg 80%
    11:00 +9°C° 0.2 mm 10 m/s 743 mmHg 79%
    12:00 +9°C° 0.2 mm 10 m/s 743 mmHg 78%
    13:00 +9°C° 0.2 mm 10 m/s 743 mmHg 77%
    14:00 +10°C° 0.1 mm 9 m/s 744 mmHg 74%
    15:00 +8°C° 0.1 mm 9 m/s 744 mmHg 72%
    16:00 +8°C° 0.1 mm 9 m/s 745 mmHg 70%
    17:00 +7°C° 0 mm 8 m/s 745 mmHg 72%
    18:00 +8°C° 0 mm 7 m/s 746 mmHg 75%
    19:00 +7°C° 0 mm 6 m/s 746 mmHg 77%
    20:00 +7°C° 0 mm 6 m/s 747 mmHg 77%
    21:00 +7°C° 0 mm 6 m/s 747 mmHg 77%
    22:00 +7°C° 0 mm 6 m/s 747 mmHg 77%
    23:00 +7°C° 0 mm 6 m/s 747 mmHg 78%

    26 Octobre, Vendredi

    Heure Température Précipitation Vent Pression Humidité
    00:00 +7°C° 0 mm 5 m/s 747 mmHg 79%
    01:00 +7°C° 0 mm 5 m/s 747 mmHg 80%
    02:00 +6°C° 0 mm 5 m/s 747 mmHg 81%
    03:00 +6°C° 0 mm 5 m/s 747 mmHg 81%
    04:00 +6°C° 0 mm 4 m/s 747 mmHg 82%
    05:00 +6°C° 0 mm 4 m/s 747 mmHg 83%
    06:00 +6°C° 0 mm 4 m/s 747 mmHg 84%
    07:00 +5°C° 0 mm 3 m/s 747 mmHg 85%
    08:00 +7°C° 0 mm 3 m/s 747 mmHg 81%
    09:00 +8°C° 0 mm 3 m/s 747 mmHg 77%
    10:00 +9°C° 0 mm 3 m/s 747 mmHg 73%
    11:00 +10°C° 0 mm 3 m/s 747 mmHg 70%
    12:00 +11°C° 0 mm 4 m/s 747 mmHg 68%
    13:00 +11°C° 0 mm 4 m/s 746 mmHg 65%
    14:00 +11°C° 0 mm 3 m/s 746 mmHg 69%
    15:00 +11°C° 0 mm 3 m/s 745 mmHg 73%
    16:00 +11°C° 0 mm 3 m/s 745 mmHg 77%
    17:00 +10°C° 0 mm 3 m/s 745 mmHg 77%
    18:00 +10°C° 0 mm 4 m/s 744 mmHg 78%
    19:00 +10°C° 0 mm 4 m/s 744 mmHg 78%
    20:00 +10°C° 0 mm 4 m/s 744 mmHg 78%
    21:00 +9°C° 0 mm 5 m/s 743 mmHg 77%
    22:00 +9°C° 0 mm 5 m/s 743 mmHg 76%
    23:00 +9°C° 0 mm 5 m/s 743 mmHg 77%

    27 Octobre, Samedi

    Heure Température Précipitation Vent Pression Humidité
    00:00 +10°C° 0 mm 4 m/s 743 mmHg 78%
    01:00 +10°C° 0 mm 4 m/s 742 mmHg 79%
    02:00 +8°C° 0 mm 4 m/s 742 mmHg 81%
    03:00 +9°C° 0 mm 3 m/s 742 mmHg 83%
    04:00 +9°C° 0 mm 3 m/s 742 mmHg 86%
    05:00 +8°C° 0 mm 2 m/s 742 mmHg 87%
    06:00 +8°C° 0 mm 2 m/s 742 mmHg 89%
    07:00 +7°C° 0 mm 2 m/s 741 mmHg 91%
    08:00 +9°C° 0 mm 2 m/s 741 mmHg 85%
    09:00 +10°C° 0 mm 2 m/s 741 mmHg 80%
    10:00 +12°C° 0 mm 2 m/s 741 mmHg 74%
    11:00 +12°C° 0.1 mm 1 m/s 741 mmHg 73%
    12:00 +13°C° 0.1 mm 1 m/s 740 mmHg 71%
    13:00 +13°C° 0.1 mm 1 m/s 740 mmHg 70%
    14:00 +13°C° 0.3 mm 1 m/s 739 mmHg 73%
    15:00 +12°C° 0.3 mm 2 m/s 739 mmHg 77%
    16:00 +12°C° 0.3 mm 2 m/s 739 mmHg 80%
    17:00 +10°C° 1 mm 3 m/s 738 mmHg 83%
    18:00 +10°C° 1 mm 4 m/s 738 mmHg 86%
    19:00 +8°C° 1 mm 5 m/s 738 mmHg 89%
    20:00 +8°C° 0.4 mm 4 m/s 738 mmHg 90%
    21:00 +8°C° 0.4 mm 4 m/s 737 mmHg 90%
    22:00 +8°C° 0.4 mm 4 m/s 737 mmHg 91%
    23:00 +7°C° 0.6 mm 5 m/s 737 mmHg 91%

    28 Octobre, Dimanche

    Heure Température Précipitation Vent Pression Humidité
    00:00 +7°C° 0.6 mm 5 m/s 737 mmHg 91%
    01:00 +7°C° 0.6 mm 5 m/s 737 mmHg 90%
    02:00 +7°C° 0.6 mm 5 m/s 737 mmHg 90%
    03:00 +6°C° 0.6 mm 5 m/s 737 mmHg 90%
    04:00 +5°C° 0.6 mm 6 m/s 737 mmHg 89%
    05:00 +6°C° 0.3 mm 5 m/s 738 mmHg 88%
    06:00 +6°C° 0.3 mm 5 m/s 739 mmHg 88%
    07:00 +6°C° 0.3 mm 5 m/s 740 mmHg 87%
    08:00 +6°C° 0.1 mm 5 m/s 741 mmHg 85%
    09:00 +6°C° 0.1 mm 5 m/s 742 mmHg 82%
    10:00 +6°C° 0.1 mm 5 m/s 743 mmHg 79%
    11:00 +7°C° 0 mm 4 m/s 744 mmHg 75%
    12:00 +8°C° 0 mm 4 m/s 744 mmHg 70%
    13:00 +8°C° 0 mm 4 m/s 745 mmHg 65%
    14:00 +9°C° 0 mm 3 m/s 746 mmHg 67%
    15:00 +9°C° 0 mm 2 m/s 746 mmHg 68%
    16:00 +8°C° 0 mm 2 m/s 747 mmHg 69%
    17:00 +9°C° 0 mm 1 m/s 747 mmHg 72%
    18:00 +8°C° 0 mm 1 m/s 748 mmHg 74%
    19:00 +8°C° 0 mm 1 m/s 748 mmHg 77%
    20:00 +8°C° 0 mm 1 m/s 749 mmHg 78%
    21:00 +7°C° 0 mm 1 m/s 749 mmHg 80%
    22:00 +7°C° 0 mm 1 m/s 750 mmHg 82%
    23:00 +7°C° 0 mm 1 m/s 750 mmHg 83%
    Voir plus